Вернуться в каталог

PALAPA C2

АктивенСвязьGEO
NORAD 23864·PAYLOAD·🇮🇩 Indonesia

Запущен May 16, 1996 с Guiana Space Centre

Loading…

TLE

СвежийSource: Space-Track

Эпоха: Sep 14, 2026, 13:26 UTC

1 23864U 96030A   26257.56031106  .00000040  00000-0  00000-0 0  9999
2 23864  11.8304  37.7955 0008427 134.7008 248.8396  0.99001396110607

Отслеживайте PALAPA C2 в реальном времени с AllMySat

Download on the App Store